Weather in Burlatskoye

Russia / Stavropol Krai     45°03′24″N   43°38′35″E
temp.,
°C
wind,
m/s
gust,
m/s
humid.,
%
clouds,
%
prec.,
mm/h
press.,
hPa
HPBL,
m
13 june, sun
sun1300:00+20n237478 0.6 101140
03:00+18nne2486100 1.3 101183
06:00+18nw2289100 1.6 101293
09:00+18nnw3388100 3.8 1012219
12:00+19nne348796 6.4 1012297
15:00+22se2269100 6.8 1012702
18:00+20ssw3482100 0.0 1012213
21:00+18ssw2290100 0.1 101324
14 june, mon
mon1400:00+17ssw1192100 0.0 101211
03:00+16sw119396 0.0 101211
06:00+18ssw11865 0.0 1012101
09:00+23ese11640 0.0 1012743
12:00+26ese335243 0.0 10111645
15:00+27e324794 0.0 10101946
18:00+26e125537 0.0 1010259
21:00+22ne486559 0.0 1010172
15 june, tue
tue1500:00+20ene410750 0.0 1009188
03:00+19ene498110 0.0 1009189
06:00+20ene3880100 0.0 1009265
09:00+25e4461100 0.0 1008774
12:00+28ne225043 0.0 10091706
15:00+28ne325076 0.1 10081361
18:00+28nne11508 0.0 1008834
21:00+23n22650 0.4 100912
16 june, wed
wed1600:00+22ne22690 0.0 100819
03:00+21e33672 0.0 100829
06:00+22e410691 0.0 1008252
09:00+27ese69490 0.0 10071038
12:00+31ese57390 0.0 10071987
15:00+32se353523 0.0 10062403
18:00+26wnw796380 0.0 1008376
21:00+21nw713760 0.0 1011497
17 june, thu
thu1700:00+19nw511890 0.0 1010404
03:00+18wnw48930 0.0 1010244
06:00+19nw57850 0.0 1009278
09:00+24nw45670 0.0 1008767
12:00+28nw445515 0.0 10071429
15:00+27wnw886281 0.0 1007862
18:00+23wnw9127933 0.0 1010518
21:00+19wnw81585100 0.1 1012514